This is the latest recevied weather packets stored in our database for station/object K7D3. If no packets are shown the sender has not sent any weather packets the latest 10 day(s).
| Time | Temp. | Humidity | Pressure | Rain* | Wind** | Luminosity | Snow |
|---|---|---|---|---|---|---|---|
| 1777154826 | 16.67° C | 53% | - | 0 mm | 4.47 m/s, 91° | - | - |
| 1777154348 | 17.22° C | 53% | - | 0 mm | 4.02 m/s, 65° | - | - |
| 1777153864 | 16.67° C | 53% | - | 0 mm | 3.13 m/s, 51° | - | - |
| 1777153385 | 17.22° C | 52% | - | 0 mm | 2.24 m/s, 38° | - | - |
| 1777152907 | 17.22° C | 51% | - | 0 mm | 3.13 m/s, 101° | - | - |
| 1777152425 | 17.22° C | 50% | - | 0 mm | 4.47 m/s, 80° | - | - |
| 1777151946 | 17.78° C | 52% | - | 0 mm | 3.13 m/s, 80° | - | - |
| 1777151467 | 17.78° C | 49% | - | 0 mm | 2.24 m/s, 65° | - | - |
| 1777150986 | 17.78° C | 50% | - | 0 mm | 3.13 m/s, 30° | - | - |
| 1777150506 | 17.78° C | 49% | - | 0 mm | 3.13 m/s, 18° | - | - |
| 1777150027 | 18.33° C | 50% | - | 0 mm | 4.92 m/s, 46° | - | - |
| 1777149545 | 18.33° C | 48% | - | 0 mm | 3.58 m/s, 65° | - | - |
| 1777149067 | 17.78° C | 49% | - | 0 mm | 3.58 m/s, 4° | - | - |
| 1777148588 | 17.78° C | 50% | - | 0 mm | 2.24 m/s, 60° | - | - |
| 1777148106 | 18.33° C | 49% | - | 0 mm | 4.02 m/s, 73° | - | - |
| 1777147627 | 17.78° C | 49% | - | 0 mm | 3.13 m/s, 6° | - | - |
| 1777147149 | 18.33° C | 50% | - | 0 mm | 0.89 m/s, 38° | - | - |
| 1777146667 | 18.33° C | 49% | - | 0 mm | 3.13 m/s, 127° | - | - |
| 1777146189 | 18.33° C | 51% | - | 0 mm | 4.02 m/s, 30° | - | - |
| 1777145710 | 18.33° C | 49% | - | 0 mm | 4.47 m/s, 65° | - | - |
* Rain latest hour (hover to see other rain measurements)
** Current wind speed in m/s (hover to see current wind gust speed)